Погода в Туньже

Россия / Республика Алтай     52°00′29″N   86°28′09″E
темп.,
°C
ветер,
м/с
пор.,
м/с
влажн.,
%
обл.,
%
осадки,
мм/ч
давл.,
гПа
погр.,
м
14 апреля, ср
ср1401:000зюз1391100 0.3 103698
04:00−1ююз119192 0.0 103520
07:00−2ююз128944 0.0 103754
10:00+1зсз128567 0.0 1037586
13:00+4сз24737 0.0 1034932
16:00+4сз2478100 0.0 1032584
19:00+1ссз1296100 0.1 1033168
22:00+1ююв2499100 1.1 1031181
15 апреля, чт
чт1501:000ююв2198100 1.1 103024
04:000ю229599 0.0 102927
07:00+1ю2193100 0.0 103028
10:00+7вюв017782 0.0 1028349
13:00+9с227499 0.0 1027681
16:00+8ссз227498 0.0 1026655
19:00+6сз128630 0.0 1026123
22:00+2ююз119646 0.0 102713
16 апреля, пт
пт1601:000юв00979 0.0 102610
04:00−1ююв119713 0.0 102510
07:00+2юв119285 0.0 102429
10:00+9в01745 0.0 1022442
13:00+13сз13605 0.0 10201133
16:00+13ссз33560 0.0 1018996
19:00+10с11740 0.0 101823
22:00+6ю11870 0.0 101810
17 апреля, сб
сб1701:00+5ююв11905 0.0 101610
04:00+5ююв2190100 0.0 101511
07:00+6ююв1186100 0.0 101413
10:00+9ссз2276100 0.0 1013333
13:00+10сз3377100 0.1 1013771
16:00+7сз3480100 0.1 1014699
19:00+5ссз2391100 0.1 1014341
22:00+4зсз0195100 0.0 101578
18 апреля, вс
вс1801:00+3ссз1297100 0.0 1015100
04:00+2сз1597100 0.0 1015352
07:00+2зсз2799100 0.4 1016428
10:00+2ссз1298100 0.8 1016461
13:00+2сз1298100 3.9 1017169
16:00+2всв0199100 3.5 1017119
19:00+2юв1299100 5.5 1016117
22:00+1вюв1296100 0.1 1015219